Mount Pleasant, SC

8:16 AM EST on February 25, 2017 (GMT -0500)
Mount Pleasant

Weather History for KLRO - February, 2014

Change the Weather History Date:

Wednesday, February 5, 2014

  Actual Average (KCHS) Record (KCHS)
Temperature  
Mean Temperature - -  
Max Temperature - 57 °F 81 °F (2012)
Min Temperature - 36 °F 16 °F (1996)
Moisture  
Dew Point -    
Average Humidity    
Maximum Humidity    
Minimum Humidity    
Precipitation  
Precipitation 0.50 in - - ()
Sea Level Pressure  
Sea Level Pressure 29.96 in    
Wind  
Wind Speed 5 mph (WSW)    
Max Wind Speed 18 mph    
Max Gust Speed 28 mph    
Visibility 5 miles    
Events Fog , Rain    
Averages and records for this station are not official NWS values.
T = Trace of Precipitation, MM = Missing Value Source: NWS Daily Summary

Daily Weather History Graph

Daily Weather History Graph

Search for Another Location

Airport or City:

Trip Planner

Search our weather history database for the weather conditions in past years. The results will help you decide how hot, cold, wet, or windy it might be!

Date:

Astronomy

Feb. 05, 2014 Rise Set
Actual Time 7:11 AM EST 5:55 PM EST
Civil Twilight 6:45 AM EST 6:21 PM EST
Nautical Twilight 6:16 AM EST 6:50 PM EST
Astronomical Twilight 5:47 AM EST 7:19 PM EST
Moon 10:47 AM EST (2/5) No Moon Set
Length of Visible Light 11h 35m
Length of Day
10h 44m
Waxing Crescent, 39% of the Moon is Illuminated
Feb 5
Waxing Crescent
Feb 6
First Quarter
Feb 14
Full
Feb 22
Last Quarter
Mar 1
New

Hourly Weather History & Observations

Time (EST) Temp. Dew Point Humidity Pressure Visibility Wind Dir Wind Speed Gust Speed Precip Events Conditions
12:15 AM - - N/A% 30.07 in 0.2 mi Calm Calm - N/A Fog Fog
12:35 AM - - N/A% 30.07 in 0.2 mi Calm Calm - N/A Fog Fog
12:55 AM - - N/A% 30.06 in 0.2 mi Calm Calm - N/A Fog Fog
1:35 AM - - N/A% 30.05 in 0.2 mi Calm Calm - N/A Fog Fog
1:55 AM - - N/A% 30.04 in 0.2 mi Calm Calm - N/A Fog Fog
2:15 AM - - N/A% 30.03 in 0.2 mi Calm Calm - N/A Fog Fog
2:35 AM - - N/A% 30.03 in 0.2 mi Calm Calm - N/A Fog Fog
2:55 AM - - N/A% 30.02 in 0.2 mi Calm Calm - N/A Fog Fog
3:15 AM - - N/A% 30.02 in 0.2 mi Calm Calm - 0.01 in Rain Rain
3:35 AM - - N/A% 30.01 in 0.5 mi Calm Calm - 0.03 in Rain Light Rain
3:55 AM - - N/A% 30.00 in 0.8 mi Calm Calm - 0.19 in Rain Heavy Rain
4:15 AM - - N/A% 30.00 in 1.5 mi Calm Calm - 0.05 in Rain Heavy Rain
4:35 AM - - N/A% 29.99 in 1.2 mi Calm Calm - 0.21 in   Overcast
4:55 AM - - N/A% 29.98 in 1.2 mi Calm Calm - 0.21 in   Light Drizzle
5:35 AM - - N/A% 29.98 in 1.0 mi Calm Calm - N/A   Overcast
5:55 AM - - N/A% 29.97 in 0.8 mi Calm Calm - N/A   Overcast
6:35 AM - - N/A% 29.97 in 0.2 mi South 3.5 mph - N/A   Light Drizzle
6:55 AM - - N/A% 29.96 in 0.2 mi South 9.2 mph - N/A Fog Fog
7:15 AM - - N/A% 29.96 in 0.2 mi South 10.4 mph - N/A Fog Fog
7:35 AM - - N/A% 29.96 in 0.2 mi South 13.8 mph 19.6 mph N/A Rain Light Rain
7:55 AM - - N/A% 29.97 in 0.2 mi SSW 13.8 mph 21.9 mph N/A Rain Light Rain
8:15 AM - - N/A% 29.96 in 1.5 mi SSW 11.5 mph 19.6 mph N/A   Overcast
8:35 AM - - N/A% 29.96 in 5.0 mi SSW 11.5 mph 24.2 mph N/A   Haze
8:55 AM - - N/A% 29.97 in 5.0 mi SSW 11.5 mph 20.7 mph N/A   Haze
9:15 AM - - N/A% 29.97 in 6.0 mi SSW 10.4 mph 18.4 mph N/A   Haze
9:35 AM - - N/A% 29.97 in 6.0 mi SSW 15.0 mph 27.6 mph N/A   Haze
9:55 AM - - N/A% 29.97 in 5.0 mi SW 13.8 mph 19.6 mph N/A   Haze
10:15 AM - - N/A% 29.97 in 4.0 mi SW 18.4 mph 24.2 mph N/A   Haze
10:35 AM - - N/A% 29.96 in 4.0 mi SSW 12.7 mph 23.0 mph N/A   Haze
10:55 AM - - N/A% 29.96 in 5.0 mi SSW 16.1 mph 26.5 mph N/A   Haze
11:55 AM - - N/A% 29.94 in 0.8 mi SSW 12.7 mph 23.0 mph 0.10 in   Overcast
12:15 PM - - N/A% 29.93 in 4.0 mi SW 15.0 mph 23.0 mph N/A   Haze
12:35 PM - - N/A% 29.92 in 3.0 mi SW 13.8 mph 23.0 mph N/A   Overcast
12:55 PM - - N/A% 29.91 in 3.0 mi SSW 12.7 mph 19.6 mph N/A   Overcast
1:15 PM - - N/A% 29.89 in 5.0 mi SSW 12.7 mph 16.1 mph N/A   Haze
1:35 PM - - N/A% 29.88 in 5.0 mi SSW 11.5 mph 19.6 mph N/A   Haze
1:55 PM - - N/A% 29.88 in 5.0 mi SW 13.8 mph 21.9 mph N/A   Haze
2:15 PM - - N/A% 29.87 in 3.0 mi SW 16.1 mph 21.9 mph N/A   Overcast
2:35 PM - - N/A% 29.88 in 4.0 mi SW 11.5 mph 20.7 mph N/A   Haze
2:55 PM - - N/A% 29.88 in 5.0 mi SW 10.4 mph - N/A   Haze
3:15 PM - - N/A% 29.87 in 8.0 mi SW 11.5 mph - N/A   Partly Cloudy
3:35 PM - - N/A% 29.88 in 9.0 mi SW 11.5 mph 17.3 mph N/A   Clear
3:55 PM - - N/A% 29.87 in 9.0 mi SSW 10.4 mph - N/A   Clear
4:15 PM - - N/A% 29.86 in 9.0 mi SW 11.5 mph - N/A   Clear
4:35 PM - - N/A% 29.87 in 8.0 mi SSW 9.2 mph - N/A   Clear
4:55 PM - - N/A% 29.87 in 8.0 mi SSW 9.2 mph - N/A   Clear
5:15 PM - - N/A% 29.88 in 8.0 mi SSW 8.1 mph - N/A   Clear
5:35 PM - - N/A% 29.88 in 8.0 mi SSW 8.1 mph - N/A   Clear
5:55 PM - - N/A% 29.90 in 7.0 mi SSW 6.9 mph - N/A   Clear
6:15 PM - - N/A% 29.91 in 8.0 mi SW 6.9 mph - N/A   Clear
6:35 PM - - N/A% 29.91 in 8.0 mi WSW 5.8 mph - N/A   Clear
6:55 PM - - N/A% 29.93 in 8.0 mi NW 3.5 mph - N/A   Clear
7:15 PM - - N/A% 29.94 in 10.0 mi NW 11.5 mph 16.1 mph N/A   Clear
7:35 PM - - N/A% 29.95 in 10.0 mi WNW 10.4 mph 16.1 mph N/A   Clear
7:55 PM - - N/A% 29.95 in 10.0 mi WNW 5.8 mph - N/A   Clear
8:15 PM - - N/A% 29.97 in 10.0 mi West 4.6 mph - N/A   Clear
8:35 PM - - N/A% 29.97 in 10.0 mi WNW 4.6 mph - N/A   Clear
8:55 PM - - N/A% 29.97 in 10.0 mi NW 4.6 mph - N/A   Clear
9:15 PM - - N/A% 29.98 in 10.0 mi NW 4.6 mph - N/A   Clear
9:35 PM - - N/A% 29.98 in 10.0 mi NW 6.9 mph - N/A   Clear
9:55 PM - - N/A% 29.99 in 10.0 mi WNW 6.9 mph - N/A   Clear
10:15 PM - - N/A% 30.00 in 10.0 mi NW 9.2 mph - N/A   Clear
10:35 PM - - N/A% 30.01 in 10.0 mi NW 6.9 mph - N/A   Clear
10:55 PM - - N/A% 30.02 in 10.0 mi NW 9.2 mph - N/A   Clear
11:15 PM - - N/A% 30.03 in 10.0 mi NW 9.2 mph - N/A   Clear
11:35 PM - - N/A% 30.04 in 10.0 mi NW 11.5 mph 17.3 mph N/A   Clear
11:55 PM - - N/A% 30.05 in 10.0 mi NW 11.5 mph 21.9 mph N/A   Clear